Weather History for Martinsville, VA

Change the Weather History Date:

Friday, February 3, 2012

  Actual Average (KGSO) Record (KGSO)
Temperature  
Mean Temperature 44 °F 40 °F  
Max Temperature 60 °F 50 °F 79 °F (1989)
Min Temperature 28 °F 31 °F 7 °F (1917)
Degree Days  
Heating Degree Days 21 25  
Month to date heating degree days 75  
Since 1 July heating degree days 2298  
Cooling Degree Days 0 0  
Month to date cooling degree days 0  
Year to date cooling degree days 0  
Moisture  
Dew Point 32 °F    
Average Humidity 69    
Maximum Humidity 100    
Minimum Humidity 34    
Precipitation  
Precipitation 0.00 in 0.10 in 1.52 in (1920)
Month to date precipitation 0.30  
Year to date precipitation 3.36  
Snow  
Snow 0.00 in 0.10 in 1.00 in (1936)
Month to date snowfall 0.3  
Since 1 July snowfall 4.6  
Snow Depth -    
Sea Level Pressure  
Sea Level Pressure 30.43 in    
Wind  
Wind Speed 1 mph (SSE)    
Max Wind Speed 6 mph    
Max Gust Speed -    
Visibility 10 miles    
Events      
T = Trace of Precipitation, MM = Missing Value Source: NWS Daily Summary

Daily Weather History Graph

Daily Weather History Graph

Search for Another Location

Airport:

Trip Planner

Search our weather history database for the weather conditions in past years. The results will help you decide how hot, cold, wet, or windy it might be!

Date:

Astronomy

Feb. 03, 2012 Rise Set
Actual Time 7:20 AM EST 5:47 PM EST
Civil Twilight 6:53 AM EST 6:14 PM EST
Nautical Twilight 6:22 AM EST 6:45 PM EST
Astronomical Twilight 5:52 AM EST 7:15 PM EST
Moon 1:50 PM EST (2/3) 3:51 AM EST (2/3)
Length of Visible Light 11h 21m
Length of Day
10h 26m
Waxing Gibbous, 81% of the Moon is Illuminated
Feb 3
Waxing Gibbous
Feb 7
Full
Feb 14
Last Quarter
Feb 21
New
Feb 29
First Quarter

Hourly Weather History & Observations

Time (EST) Temp. Windchill Dew Point Humidity Pressure Visibility Wind Dir Wind Speed Gust Speed Precip Events Conditions
12:15 AM 41.0 °F - 33.8 °F 76% 30.36 in 10.0 mi Calm Calm - N/A   Clear
12:35 AM 42.8 °F - 33.8 °F 70% 30.36 in 10.0 mi Calm Calm - N/A   Clear
12:55 AM 37.4 °F 34.9 °F 32.0 °F 81% 30.36 in 10.0 mi WNW 3.5 mph - N/A   Clear
1:15 AM 35.6 °F 32.8 °F 32.0 °F 87% 30.37 in 10.0 mi SE 3.5 mph - N/A   Clear
1:35 AM 35.6 °F - 32.0 °F 87% 30.38 in 10.0 mi Calm Calm - N/A   Clear
1:55 AM 35.6 °F 31.7 °F 32.0 °F 87% 30.38 in 10.0 mi WNW 4.6 mph - N/A   Clear
2:15 AM 35.6 °F - 32.0 °F 87% 30.39 in 10.0 mi Calm Calm - N/A   Clear
2:35 AM 35.6 °F 32.8 °F 30.2 °F 81% 30.40 in 10.0 mi NW 3.5 mph - N/A   Clear
2:55 AM 35.6 °F - 32.0 °F 87% 30.40 in 10.0 mi Calm Calm - N/A   Clear
3:15 AM 33.8 °F - 30.2 °F 87% 30.40 in 10.0 mi Calm Calm - N/A   Clear
3:35 AM 32.0 °F 28.7 °F 32.0 °F 100% 30.40 in 10.0 mi NW 3.5 mph - N/A   Clear
3:55 AM 32.0 °F - 32.0 °F 100% 30.41 in 10.0 mi Calm Calm - N/A   Clear
4:15 AM 30.2 °F - 30.2 °F 100% 30.42 in 10.0 mi Calm Calm - N/A   Clear
4:35 AM 30.2 °F - 30.2 °F 100% 30.43 in 10.0 mi Calm Calm - N/A   Clear
4:55 AM 30.2 °F - 30.2 °F 100% 30.43 in 10.0 mi Calm Calm - N/A   Clear
5:15 AM 30.2 °F - 30.2 °F 100% 30.44 in 10.0 mi Calm Calm - N/A   Clear
5:35 AM 28.4 °F - 28.4 °F 100% 30.45 in 10.0 mi Calm Calm - N/A   Clear
5:55 AM 30.2 °F - 30.2 °F 100% 30.46 in 10.0 mi Calm Calm - N/A   Clear
6:15 AM 30.2 °F - 30.2 °F 100% 30.47 in 10.0 mi Calm Calm - N/A   Clear
6:35 AM 28.4 °F - 28.4 °F 100% 30.47 in 10.0 mi Calm Calm - N/A   Clear
6:55 AM 28.4 °F - 28.4 °F 100% 30.47 in 10.0 mi Calm Calm - N/A   Clear
7:15 AM 28.4 °F - 28.4 °F 100% 30.47 in 10.0 mi Calm Calm - N/A   Clear
7:35 AM 28.4 °F - 28.4 °F 100% 30.47 in 10.0 mi Calm Calm - N/A   Clear
7:55 AM 28.4 °F - 28.4 °F 100% 30.48 in 10.0 mi Calm Calm - N/A   Clear
8:15 AM 32.0 °F - 32.0 °F 100% 30.48 in 10.0 mi Calm Calm - N/A   Clear
8:35 AM 35.6 °F - 33.8 °F 93% 30.48 in 10.0 mi Calm Calm - N/A   Clear
8:55 AM 37.4 °F - 35.6 °F 93% 30.48 in 10.0 mi Calm Calm - N/A   Clear
9:15 AM 42.8 °F - 35.6 °F 76% 30.49 in 10.0 mi Calm Calm - N/A   Clear
9:35 AM 44.6 °F - 35.6 °F 71% 30.50 in 10.0 mi Calm Calm - N/A   Clear
9:55 AM 48.2 °F - 37.4 °F 66% 30.49 in 10.0 mi Calm Calm - N/A   Clear
10:15 AM 50.0 °F - 35.6 °F 58% 30.50 in 10.0 mi Calm Calm - N/A   Clear
10:35 AM 51.8 °F - 35.6 °F 54% 30.50 in 10.0 mi East 4.6 mph - N/A   Clear
10:55 AM 53.6 °F - 33.8 °F 47% 30.50 in 10.0 mi ENE 4.6 mph - N/A   Clear
11:15 AM 53.6 °F - 33.8 °F 47% 30.50 in 10.0 mi Calm Calm - N/A   Clear
11:35 AM 53.6 °F - 35.6 °F 51% 30.49 in 10.0 mi Calm Calm - N/A   Clear
11:55 AM 55.4 °F - 33.8 °F 44% 30.48 in 10.0 mi East 5.8 mph - N/A   Clear
12:15 PM 55.4 °F - 33.8 °F 44% 30.47 in 10.0 mi Calm Calm - N/A   Clear
12:35 PM 55.4 °F - 33.8 °F 44% 30.46 in 10.0 mi Calm Calm - N/A   Clear
12:55 PM 57.2 °F - 33.8 °F 41% 30.45 in 10.0 mi NE 3.5 mph - N/A   Clear
1:15 PM 57.2 °F - 33.8 °F 41% 30.44 in 10.0 mi Calm Calm - N/A   Clear
1:35 PM 57.2 °F - 33.8 °F 41% 30.43 in 10.0 mi South 5.8 mph - N/A   Clear
1:55 PM 57.2 °F - 33.8 °F 41% 30.43 in 10.0 mi Calm Calm - N/A   Clear
2:15 PM 59.0 °F - 33.8 °F 39% 30.42 in 10.0 mi Calm Calm - N/A   Clear
2:35 PM 60.8 °F - 33.8 °F 36% 30.41 in 10.0 mi South 5.8 mph - N/A   Clear
2:55 PM 60.8 °F - 33.8 °F 36% 30.41 in 10.0 mi South 4.6 mph - N/A   Clear
3:15 PM 60.8 °F - 33.8 °F 36% 30.41 in 10.0 mi SE 5.8 mph - N/A   Clear
3:35 PM 59.0 °F - 33.8 °F 39% 30.40 in 10.0 mi South 3.5 mph - N/A   Clear
3:55 PM 59.0 °F - 30.2 °F 34% 30.41 in 10.0 mi Calm Calm - N/A   Clear
4:15 PM 59.0 °F - 32.0 °F 36% 30.40 in 10.0 mi SSE 3.5 mph - N/A   Clear
4:35 PM 57.2 °F - 33.8 °F 41% 30.40 in 10.0 mi Calm Calm - N/A   Clear
4:55 PM 57.2 °F - 33.8 °F 41% 30.40 in 10.0 mi SSE 3.5 mph - N/A   Clear
5:15 PM 55.4 °F - 32.0 °F 41% 30.40 in 10.0 mi Calm Calm - N/A   Clear
5:35 PM 53.6 °F - 33.8 °F 47% 30.39 in 10.0 mi Calm Calm - N/A   Clear
5:55 PM 50.0 °F - 33.8 °F 54% 30.39 in 10.0 mi Calm Calm - N/A   Clear
6:15 PM 46.4 °F - 35.6 °F 66% 30.40 in 10.0 mi Calm Calm - N/A   Clear
6:35 PM 46.4 °F - 33.8 °F 62% 30.40 in 10.0 mi Calm Calm - N/A   Clear
6:55 PM 44.6 °F - 33.8 °F 66% 30.41 in 10.0 mi Calm Calm - N/A   Clear
7:15 PM 42.8 °F - 32.0 °F 66% 30.40 in 10.0 mi Calm Calm - N/A   Clear
7:35 PM 42.8 °F - 33.8 °F 70% 30.40 in 10.0 mi Calm Calm - N/A   Clear
7:55 PM 39.2 °F - 33.8 °F 81% 30.41 in 10.0 mi Calm Calm - N/A   Clear
8:15 PM 39.2 °F - 32.0 °F 75% 30.41 in 10.0 mi Calm Calm - N/A   Clear
8:35 PM 37.4 °F - 32.0 °F 81% 30.40 in 10.0 mi Calm Calm - N/A   Clear
8:55 PM 37.4 °F - 32.0 °F 81% 30.40 in 10.0 mi Calm Calm - N/A   Clear
9:15 PM 37.4 °F - 32.0 °F 81% 30.39 in 10.0 mi Calm Calm - N/A   Clear
9:35 PM 35.6 °F - 30.2 °F 81% 30.39 in 10.0 mi Calm Calm - N/A   Clear
9:55 PM 35.6 °F - 30.2 °F 81% 30.39 in 10.0 mi Calm Calm - N/A   Clear
10:15 PM 35.6 °F - 30.2 °F 81% 30.39 in 10.0 mi Calm Calm - N/A   Clear
10:35 PM 35.6 °F - 30.2 °F 81% 30.39 in 10.0 mi Calm Calm - N/A   Clear
10:55 PM 35.6 °F - 30.2 °F 81% 30.38 in 10.0 mi Calm Calm - N/A   Clear
11:15 PM 33.8 °F - 30.2 °F 87% 30.37 in 10.0 mi Calm Calm - N/A   Clear
11:35 PM 33.8 °F - 30.2 °F 87% 30.36 in 10.0 mi Calm Calm - N/A   Clear
11:55 PM 33.8 °F - 30.2 °F 87% 30.36 in 10.0 mi Calm Calm - N/A   Clear